Back to catalog

ATLAS 5 CENTAUR DEB

AliveHEO
NORAD 44016·DEBRIS·🇺🇸 United States

Launched Sep 17, 2014 from Cape Canaveral Space Force Station

Loading…

Next Passes (next 24 hours)

TLE

FreshSource: Space-Track

Epoch: Sep 8, 2026, 12:51 UTC

1 44016U 14055BX  26251.53597745 -.00000086  00000-0  00000-0 0  9996
2 44016  19.8252 144.6831 4693920 161.0339 224.8913  1.83868310 52933

Track ATLAS 5 CENTAUR DEB in real time with AllMySat

Download on the App Store